Temp
82 81 81 80 80 81 79 79 79 79 79 80 80 79 79 80 81 80 81 81 80 80 80 79 79 79 79 79 79 79 78 78 78 78 77 77 77 77 76 76 75 75
81 81 81 81 80 80 79 80 79 79 79 79 80 80 80 80 80 81 80 80 80 80 80 80 79 79 79 79 79 78 78 78 78 79 77 77 77 77 77 77 77 77
81 80 80 80 80 79 80 80 79 79 80 80 80 80 80 80 80 80 80 80 80 80 79 79 79 79 79 79 78 78 78 78 77 79 78 77 78 77 77 78 77 77
80 80 80 81 81 79 79 79 78 79 80 79 79 80 80 80 80 79 79 79 79 79 80 80 80 80 79 79 78 78 78 78 79 79 78 78 78 78 78 78 77 77
79 79 80 80 80 80 79 78 79 79 79 79 80 79 79 79 79 79 79 78 79 79 79 79 79 80 79 79 78 78 78 78 79 78 77 77 78 78 78 77 77 76
80 80 80 80 79 79 78 79 79 79 79 79 79 80 80 79 79 79 79 79 80 80 80 80 80 80 80 79 78 78 78 79 79 78 77 77 78 78 78 77 77 76
79 79 79 80 79 79 78 78 79 79 79 80 79 79 80 80 79 79 79 80 80 80 80 79 79 79 79 78 78 77 78 78 78 77 76 77 77 77 78 76 76 76
79 80 79 79 78 78 78 79 79 78 79 78 79 79 79 80 78 79 79 79 80 78 78 79 79 78 80 79 77 77 78 79 78 77 76 77 77 76 77 77 76 75
79 79 78 77 76 76 79 80 79 78 78 78 78 80 78 78 78 78 77 78 77 78 77 78 78 78 79 78 78 77 77 78 79 78 77 77 76 76 77 77 76 75
77 75 75 77 77 76 78 79 79 78 77 77 77 78 77 76 77 77 77 76 76 77 77 77 78 78 78 78 77 77 77 77 78 77 77 77 77 77 78 77 76 76
73 73 73 73 75 75 76 78 78 78 76 76 77 76 77 76 75 76 75 75 76 76 76 76 78 78 77 78 77 77 77 77 77 77 77 77 77 77 77 77 77 76
70 70 70 71 73 74 75 76 77 76 76 76 76 76 76 76 75 75 75 75 75 75 76 77 77 77 77 77 77 77 76 76 77 76 77 77 77 78 78 78 77 77
69 69 70 72 73 72 73 74 75 76 77 76 76 76 75 76 76 75 74 75 75 75 76 76 76 77 76 76 76 76 75 75 76 77 76 77 77 78 79 79 78 77
70 71 72 74 74 73 73 73 73 73 73 74 75 74 75 75 76 75 75 75 75 75 75 76 76 77 76 76 76 76 76 76 76 76 77 77 77 77 78 79 78 78
73 74 75 76 76 74 72 71 72 72 73 73 73 73 74 76 76 76 74 73 74 75 76 76 76 76 77 76 76 75 76 76 76 77 77 77 77 78 79 78 78 78
74 75 73 72 73 71 71 72 72 72 73 73 73 74 75 75 75 74 75 74 74 75 75 76 75 76 72 67 69 76 77 77 77 77 77 77 76 76 78 78 78 78
74 73 72 70 69 69 72 72 71 72 72 72 73 73 73 73 73 73 73 74 75 75 75 75 75 75 67 64 64 66 75 78 76 76 76 76 76 75 76 77 78 78
73 73 72 72 71 71 73 73 73 72 72 73 73 73 73 72 72 72 72 74 74 75 76 76 77 70 64 63 64 63 66 75 77 76 76 76 77 77 77 77 77 78
74 74 74 74 74 74 74 73 73 73 73 73 73 75 74 71 70 71 72 73 74 74 75 77 78 69 63 62 63 63 63 68 77 76 76 77 77 77 77 76 76 77
74 74 74 74 74 75 75 73 73 73 74 76 76 76 74 73 72 72 73 73 74 74 75 77 77 70 63 61 61 61 62 65 75 76 77 77 76 77 77 76 76 76
75 74 73 72 73 73 72 72 72 74 75 76 77 76 74 73 73 73 73 74 75 76 76 76 77 67 62 61 59 59 60 64 74 75 76 76 76 77 76 76 77 76
75 74 73 74 73 73 72 71 72 72 73 75 75 76 76 75 74 75 75 75 76 76 77 76 79 66 62 60 59 59 60 70 73 73 74 74 75 75 76 76 76 75
75 74 74 74 74 74 73 73 73 73 74 75 74 75 75 74 74 75 75 76 77 76 75 75 77 69 60 58 58 58 61 71 72 73 73 73 74 74 75 75 74 73
75 75 73 72 72 72 73 74 74 74 75 75 75 76 76 76 77 76 76 76 77 76 78 76 77 71 60 57 56 58 62 71 72 72 73 72 70 71 71 71 70 67
76 74 72 72 72 72 72 72 73 74 75 75 75 76 76 76 76 76 76 76 76 76 71 75 78 74 61 58 56 56 62 71 71 72 71 71 70 69 70 70 70 67
75 73 73 73 74 74 74 73 73 73 75 75 75 76 76 76 76 76 75 76 77 76 77 76 76 78 73 57 55 55 57 70 73 71 70 70 70 70 70 69 70 69
MSLP
1013.92 1014.16 1014.52 1014.84 1015.04 1015.20 1015.56 1015.96 1016.12 1016.32 1016.44 1016.52 1016.84 1016.96 1017.04 1017.12 1017.16 1017.36 1017.48 1017.56 1017.68 1017.84 1018.00 1018.12 1018.20 1018.36 1018.40 1018.44 1018.52 1018.64 1018.76 1018.88 1018.88 1018.92 1019.04 1019.12 1019.20 1019.28 1019.40 1019.48 1019.56 1019.52
1013.64 1013.84 1014.08 1014.40 1014.76 1015.04 1015.28 1015.44 1015.80 1016.00 1016.24 1016.40 1016.48 1016.64 1016.76 1016.92 1017.08 1017.20 1017.40 1017.56 1017.68 1017.84 1017.92 1018.04 1018.16 1018.24 1018.28 1018.32 1018.40 1018.60 1018.68 1018.76 1018.88 1018.68 1019.00 1019.12 1019.08 1019.12 1019.20 1019.20 1019.28 1019.20
1013.32 1013.64 1013.92 1014.32 1014.64 1014.96 1015.12 1015.32 1015.52 1015.76 1016.00 1016.20 1016.32 1016.48 1016.72 1016.80 1017.00 1017.08 1017.20 1017.40 1017.64 1017.72 1017.84 1017.92 1018.08 1018.12 1018.20 1018.24 1018.32 1018.48 1018.56 1018.64 1018.80 1018.60 1018.76 1018.92 1018.84 1019.04 1019.00 1019.00 1019.04 1019.12
1013.04 1013.32 1013.68 1014.04 1014.32 1014.72 1015.00 1015.32 1015.60 1015.80 1015.92 1016.20 1016.32 1016.32 1016.48 1016.64 1016.76 1017.00 1017.12 1017.28 1017.48 1017.60 1017.64 1017.76 1017.92 1018.00 1018.12 1018.16 1018.28 1018.36 1018.40 1018.48 1018.40 1018.44 1018.68 1018.68 1018.72 1018.76 1018.84 1018.88 1018.92 1018.88
1012.80 1013.20 1013.44 1013.72 1014.00 1014.36 1014.84 1015.28 1015.56 1015.68 1015.84 1015.88 1016.00 1016.08 1016.28 1016.48 1016.64 1016.80 1016.96 1017.16 1017.28 1017.40 1017.48 1017.68 1017.76 1017.92 1018.00 1018.16 1018.20 1018.32 1018.32 1018.36 1018.28 1018.44 1018.64 1018.68 1018.56 1018.64 1018.64 1018.76 1018.84 1018.88
1012.48 1012.72 1013.04 1013.40 1013.80 1014.32 1014.84 1015.12 1015.24 1015.44 1015.60 1015.76 1015.80 1015.76 1015.92 1016.12 1016.36 1016.56 1016.72 1016.96 1017.04 1017.20 1017.32 1017.40 1017.60 1017.68 1017.84 1018.00 1018.12 1018.20 1018.20 1018.28 1018.20 1018.36 1018.52 1018.56 1018.44 1018.32 1018.44 1018.56 1018.68 1018.76
1012.44 1012.80 1013.16 1013.32 1013.84 1014.20 1014.60 1014.84 1014.96 1015.16 1015.36 1015.40 1015.56 1015.76 1015.76 1016.04 1016.24 1016.40 1016.56 1016.72 1016.92 1017.04 1017.12 1017.24 1017.40 1017.52 1017.56 1017.80 1018.00 1018.12 1018.08 1018.16 1018.16 1018.28 1018.44 1018.36 1018.28 1018.28 1018.24 1018.44 1018.56 1018.60
1012.16 1012.56 1013.00 1013.44 1014.04 1014.52 1014.80 1014.92 1015.00 1015.12 1015.20 1015.40 1015.64 1015.64 1015.72 1015.92 1016.12 1016.24 1016.36 1016.56 1016.76 1016.92 1016.96 1017.04 1017.12 1017.28 1017.32 1017.52 1017.84 1017.96 1018.00 1017.92 1018.08 1018.12 1018.24 1018.24 1018.16 1018.24 1018.16 1018.20 1018.28 1018.40
1012.24 1012.88 1013.44 1014.08 1014.52 1014.68 1014.80 1014.96 1015.08 1015.16 1015.16 1015.40 1015.48 1015.56 1015.68 1015.76 1015.96 1016.04 1016.20 1016.36 1016.60 1016.72 1016.80 1016.88 1016.96 1017.08 1017.12 1017.36 1017.56 1017.76 1017.88 1017.84 1017.76 1017.88 1017.96 1018.04 1018.04 1018.00 1017.96 1017.92 1018.08 1018.16
1013.20 1013.92 1014.64 1014.72 1014.60 1014.40 1014.32 1014.36 1014.64 1014.92 1015.08 1015.32 1015.40 1015.40 1015.56 1015.64 1015.72 1015.84 1016.00 1016.20 1016.36 1016.48 1016.52 1016.64 1016.76 1016.84 1016.96 1017.04 1017.28 1017.44 1017.56 1017.64 1017.56 1017.60 1017.60 1017.64 1017.68 1017.68 1017.64 1017.68 1017.80 1017.92
1013.96 1014.56 1014.44 1014.08 1013.92 1013.92 1014.00 1014.16 1014.44 1014.68 1014.92 1015.16 1015.28 1015.36 1015.32 1015.44 1015.64 1015.64 1015.84 1015.92 1016.04 1016.12 1016.20 1016.36 1016.44 1016.52 1016.72 1016.80 1016.92 1017.00 1017.20 1017.28 1017.32 1017.32 1017.36 1017.36 1017.36 1017.32 1017.36 1017.40 1017.48 1017.60
1013.24 1013.04 1012.88 1012.68 1012.92 1013.44 1013.88 1014.12 1014.36 1014.56 1014.76 1014.88 1014.92 1015.08 1015.12 1015.20 1015.36 1015.48 1015.52 1015.60 1015.64 1015.72 1015.80 1015.96 1016.08 1016.24 1016.40 1016.52 1016.60 1016.72 1016.88 1017.00 1017.00 1017.04 1017.00 1017.04 1017.04 1017.04 1017.00 1017.00 1017.12 1017.20
1010.40 1011.00 1011.36 1011.76 1012.56 1013.52 1014.08 1014.12 1014.36 1014.44 1014.48 1014.60 1014.52 1014.72 1014.88 1015.00 1015.04 1015.20 1015.24 1015.40 1015.52 1015.64 1015.72 1015.76 1015.84 1016.00 1016.16 1016.28 1016.36 1016.44 1016.56 1016.68 1016.68 1016.64 1016.68 1016.72 1016.72 1016.72 1016.64 1016.64 1016.72 1016.80
1010.60 1010.56 1010.64 1011.28 1012.20 1012.60 1013.04 1013.40 1013.80 1014.04 1014.12 1014.08 1014.24 1014.52 1014.56 1014.60 1014.72 1014.92 1015.00 1015.16 1015.24 1015.40 1015.48 1015.52 1015.64 1015.76 1015.88 1015.96 1016.04 1016.08 1016.20 1016.28 1016.32 1016.32 1016.32 1016.36 1016.40 1016.40 1016.36 1016.36 1016.40 1016.44
1010.16 1010.16 1010.60 1011.48 1011.92 1012.36 1012.56 1012.72 1012.92 1013.28 1013.64 1013.84 1013.88 1013.96 1014.04 1014.12 1014.28 1014.52 1014.88 1015.08 1015.04 1015.12 1015.24 1015.28 1015.40 1015.48 1015.48 1015.60 1015.80 1015.92 1015.92 1016.00 1016.00 1016.04 1016.12 1016.20 1016.20 1016.12 1016.04 1016.08 1016.12 1016.12
1010.08 1010.76 1011.72 1012.44 1012.68 1012.48 1012.12 1011.88 1011.84 1012.04 1012.56 1013.04 1013.28 1013.44 1013.64 1013.88 1014.12 1014.36 1014.60 1014.76 1014.88 1014.92 1014.96 1015.04 1015.08 1015.04 1015.08 1015.32 1015.44 1015.48 1015.52 1015.56 1015.60 1015.72 1015.84 1015.96 1016.08 1016.04 1015.92 1015.84 1015.84 1015.80
1010.36 1011.16 1011.88 1012.28 1011.64 1011.36 1011.00 1011.00 1011.44 1011.68 1011.96 1012.44 1012.84 1013.16 1013.44 1013.68 1013.96 1014.16 1014.20 1014.20 1014.36 1014.52 1014.68 1014.68 1014.68 1014.56 1014.76 1015.04 1015.24 1015.32 1015.20 1015.20 1015.40 1015.52 1015.60 1015.76 1015.80 1015.84 1015.84 1015.64 1015.48 1015.44
1009.88 1010.20 1010.40 1010.40 1010.44 1010.52 1010.44 1010.68 1011.32 1011.84 1012.12 1012.40 1012.76 1013.04 1013.24 1013.44 1013.72 1013.80 1013.84 1013.88 1014.00 1014.12 1014.24 1014.20 1014.20 1014.16 1014.48 1014.72 1014.92 1015.00 1015.08 1014.96 1015.00 1015.20 1015.36 1015.44 1015.40 1015.40 1015.32 1015.28 1015.24 1015.12
1009.28 1009.60 1009.88 1010.12 1010.40 1010.44 1010.36 1010.72 1011.32 1011.80 1011.92 1012.12 1012.48 1012.56 1012.84 1013.28 1013.40 1013.56 1013.64 1013.68 1013.80 1013.96 1013.92 1013.76 1013.76 1013.80 1014.16 1014.40 1014.60 1014.76 1014.88 1015.00 1014.84 1014.88 1015.00 1015.04 1015.00 1015.00 1015.00 1015.00 1014.92 1014.88
1009.12 1009.48 1009.64 1009.68 1009.72 1009.96 1010.24 1010.52 1010.80 1011.20 1011.36 1011.48 1011.84 1012.24 1012.64 1012.88 1013.12 1013.28 1013.28 1013.44 1013.56 1013.64 1013.60 1013.48 1013.48 1013.52 1013.84 1014.04 1014.24 1014.48 1014.68 1014.92 1014.72 1014.64 1014.64 1014.60 1014.60 1014.60 1014.60 1014.60 1014.60 1014.60
1008.76 1009.08 1009.36 1009.12 1009.24 1009.88 1010.36 1010.64 1010.80 1010.96 1011.20 1011.32 1011.52 1011.88 1012.28 1012.56 1012.76 1013.00 1013.08 1013.16 1013.24 1013.20 1013.24 1013.24 1013.08 1013.12 1013.40 1013.60 1013.84 1014.04 1014.24 1014.60 1014.48 1014.44 1014.40 1014.36 1014.32 1014.28 1014.28 1014.20 1014.20 1014.20
1008.28 1008.64 1008.52 1008.88 1009.56 1009.84 1010.20 1010.52 1010.72 1010.88 1011.12 1011.24 1011.44 1011.60 1011.80 1012.12 1012.40 1012.56 1012.72 1012.88 1012.88 1012.88 1012.96 1012.96 1012.60 1012.72 1013.04 1013.24 1013.36 1013.56 1013.88 1014.24 1014.16 1014.28 1014.28 1014.20 1014.16 1014.04 1013.96 1013.92 1013.92 1014.00
1007.76 1008.04 1008.52 1009.04 1009.04 1009.36 1009.52 1009.68 1010.00 1010.32 1010.68 1010.96 1011.40 1011.52 1011.76 1012.04 1012.16 1012.24 1012.32 1012.48 1012.56 1012.56 1012.72 1012.68 1012.44 1012.32 1012.60 1012.84 1013.12 1013.32 1013.84 1014.00 1013.96 1013.96 1013.96 1014.00 1013.96 1013.92 1013.92 1013.88 1013.88 1013.92
1007.44 1007.92 1008.44 1008.36 1008.48 1008.92 1009.12 1009.16 1009.28 1009.56 1010.16 1010.48 1010.92 1011.16 1011.40 1011.56 1011.72 1011.92 1012.04 1012.12 1012.20 1012.24 1012.20 1012.36 1012.12 1011.92 1012.24 1012.48 1012.76 1013.12 1013.60 1013.68 1013.68 1013.72 1013.76 1013.84 1014.04 1014.00 1014.00 1013.96 1013.84 1014.16
1007.32 1007.64 1007.76 1007.92 1008.36 1008.40 1008.52 1008.92 1009.12 1009.40 1009.72 1010.16 1010.52 1010.76 1011.04 1011.20 1011.48 1011.72 1011.80 1011.80 1011.84 1011.92 1011.92 1012.20 1012.00 1011.84 1012.00 1012.28 1012.56 1013.00 1013.48 1013.52 1013.48 1013.48 1013.64 1013.68 1013.84 1013.96 1013.76 1013.60 1013.60 1013.72
1006.96 1007.20 1007.44 1007.76 1008.04 1008.24 1008.32 1008.48 1008.76 1009.24 1009.60 1009.96 1010.32 1010.60 1011.00 1011.28 1011.48 1011.56 1011.76 1011.68 1011.64 1011.76 1011.72 1011.84 1011.92 1011.76 1011.76 1012.16 1012.48 1012.84 1013.16 1013.12 1013.04 1013.28 1013.48 1013.56 1013.60 1013.52 1013.44 1013.36 1013.28 1013.28
Wind_Speed
10 9 9 9 8 7 8 8 7 8 7 7 7 7 7 7 7 7 7 6 6 6 5 5 5 5 5 5 5 4 4 4 4 3 3 3 4 4 4 5 5 4
12 11 9 8 7 6 6 8 8 8 7 7 6 6 6 6 7 7 6 6 6 6 6 6 6 6 5 5 5 4 4 4 5 3 3 4 4 4 5 5 5 4
12 11 11 11 9 10 10 8 7 7 7 7 6 6 6 6 6 6 6 7 7 7 6 6 6 6 5 5 4 4 4 4 5 4 4 5 4 4 5 5 5 6
12 11 10 10 9 9 8 7 6 5 5 5 6 6 6 6 6 7 7 7 7 6 6 6 6 6 5 4 4 4 4 4 5 4 5 5 5 5 6 5 6 6
12 11 9 9 8 8 7 7 8 7 7 7 7 7 6 7 7 8 8 7 7 7 6 6 6 6 5 4 4 4 4 4 4 4 5 6 5 5 6 6 6 7
11 11 11 10 9 9 8 9 9 8 8 8 8 7 8 8 8 8 8 8 8 7 7 7 6 6 5 5 4 5 4 5 5 5 5 6 6 5 5 6 8 8
12 10 10 9 9 10 9 9 8 8 7 7 6 8 8 8 8 8 8 7 7 7 7 6 6 6 5 5 5 5 5 5 5 5 6 6 6 7 6 7 8 9
13 11 10 8 9 7 7 7 7 7 7 7 8 8 7 8 7 7 6 6 7 7 7 7 7 7 6 5 6 6 7 5 6 6 7 7 6 7 7 6 7 9
10 9 8 9 8 6 7 7 7 6 6 7 7 7 6 6 7 7 6 6 7 6 6 6 7 6 6 6 6 7 7 8 7 8 8 8 8 8 8 7 8 8
8 11 9 6 7 7 10 10 8 7 6 7 6 6 6 6 6 6 6 7 7 7 7 7 7 6 6 6 7 7 8 9 9 9 8 9 9 9 8 7 7 8
15 9 8 10 11 9 10 9 8 7 6 7 6 6 6 6 6 6 6 7 8 9 8 7 8 7 7 7 7 7 8 8 9 9 9 9 9 9 8 8 8 8
14 14 15 16 14 10 8 8 6 6 6 7 7 8 7 7 7 6 7 8 8 8 8 7 7 7 7 8 8 8 7 8 8 9 9 9 9 9 8 8 8 8
21 19 18 16 12 10 8 6 5 7 7 8 8 8 8 8 8 8 7 7 7 6 7 7 7 7 7 7 8 8 8 8 9 9 8 8 8 9 8 8 8 8
16 18 17 15 11 12 11 9 8 9 9 8 6 8 9 9 9 9 8 7 7 7 7 6 7 7 8 8 8 8 8 8 8 7 7 7 7 7 8 8 9 9
14 14 12 11 13 11 9 10 12 11 9 8 7 7 7 9 8 8 6 7 7 7 8 7 7 7 7 7 7 8 8 8 7 7 7 7 7 8 8 8 8 8
12 7 7 8 8 11 14 15 14 14 11 10 9 9 8 7 7 6 7 8 8 8 8 7 6 6 8 12 10 7 8 6 6 6 7 7 7 8 9 8 8 8
11 10 12 13 16 15 15 16 14 10 9 9 8 8 8 7 7 8 9 9 9 8 8 7 7 7 11 12 14 14 8 7 6 6 7 7 8 8 9 9 8 8
13 15 17 19 16 15 14 11 9 8 8 8 8 9 7 6 8 8 7 7 7 8 9 8 8 9 12 13 13 14 11 7 6 6 6 7 8 9 8 8 8 8
15 16 16 14 12 12 9 8 9 9 10 9 10 10 7 7 7 7 8 7 7 8 9 9 8 9 13 13 14 13 13 10 6 7 8 9 9 9 9 8 8 8
15 15 14 15 14 13 10 10 11 12 11 10 9 7 8 8 8 10 8 8 8 8 8 8 9 9 13 14 14 13 12 10 8 8 9 9 10 9 8 9 9 9
16 14 13 16 14 10 7 8 10 10 10 9 9 9 9 9 8 8 7 7 9 8 8 8 8 11 13 13 12 12 13 10 8 7 8 8 8 9 10 10 9 8
17 15 15 11 10 11 10 10 9 9 9 7 7 7 6 5 6 7 8 8 8 7 7 9 10 12 12 12 13 13 12 7 7 7 8 8 8 9 9 8 7 7
16 16 13 12 13 12 13 13 13 11 9 6 7 7 7 7 8 7 7 7 8 8 9 10 10 10 12 12 12 13 7 5 6 7 7 8 8 6 6 6 5 5
15 13 11 14 13 13 14 13 12 9 9 7 9 8 8 8 7 6 7 8 9 10 10 11 11 10 12 12 12 10 8 7 6 6 7 6 4 5 4 5 6 6
14 12 13 14 13 14 13 12 11 10 8 7 8 7 7 5 5 7 8 8 9 10 10 11 11 10 10 11 10 8 7 6 6 7 6 6 3 4 6 7 6 8
14 13 13 12 13 12 12 11 8 7 8 8 7 6 5 5 5 6 8 8 7 9 9 9 10 9 7 10 9 8 10 7 6 6 6 6 8 9 7 8 8 8
Wind_Direction
193 188 190 189 192 187 176 182 186 191 190 187 186 188 187 187 182 184 189 186 189 198 199 206 209 211 215 214 213 218 223 229 235 227 225 231 240 237 232 219 215 232
194 189 188 187 182 180 180 184 184 191 189 186 188 182 185 182 182 186 188 191 194 206 210 211 209 214 218 214 207 217 224 225 234 210 232 230 244 241 243 239 240 239
190 190 190 187 186 185 186 187 188 191 188 188 185 184 181 186 182 184 190 196 199 208 206 210 212 215 219 218 211 219 227 231 241 232 237 247 249 253 258 257 254 246
191 188 187 186 182 175 174 178 184 186 183 179 188 188 186 183 186 187 192 194 201 205 208 209 216 220 220 223 220 230 236 246 254 259 257 256 258 261 265 265 263 261
184 184 183 180 176 169 165 178 186 187 192 188 185 185 185 183 187 194 196 196 203 208 205 211 216 226 224 229 226 242 243 252 250 249 256 262 261 259 264 263 264 264
184 184 180 175 166 164 171 185 187 186 189 187 191 189 192 186 191 198 199 203 207 214 215 217 221 226 228 230 232 243 250 255 255 244 253 260 267 264 265 263 263 263
184 182 179 167 162 167 174 184 186 187 189 190 187 198 190 189 194 199 199 202 212 215 218 219 222 228 221 225 231 240 240 249 255 245 249 257 259 266 261 259 262 263
183 178 171 162 152 156 179 184 189 191 184 184 199 198 190 193 195 198 199 199 214 215 215 220 225 227 228 221 229 235 242 239 242 241 244 250 253 257 259 256 259 265
171 161 134 123 136 157 181 193 202 196 183 194 202 198 188 197 195 198 191 196 210 215 215 220 222 227 227 224 229 232 240 243 241 241 243 248 249 250 252 254 258 262
105 73 77 119 152 171 189 197 194 190 186 200 199 193 185 192 197 197 195 196 207 213 215 218 220 222 225 224 227 233 236 240 242 239 239 240 243 247 253 250 256 264
87 100 148 183 188 190 194 191 191 183 181 198 199 205 190 186 199 199 197 200 207 211 211 212 219 222 224 227 225 227 234 240 244 244 240 239 238 241 242 248 253 257
133 162 177 193 191 184 175 187 177 177 180 195 202 204 197 201 200 198 202 207 208 208 208 209 212 219 223 227 229 227 228 236 241 241 243 241 240 239 243 244 248 253
172 173 186 193 177 163 193 191 191 199 196 202 202 204 196 205 209 207 205 211 210 210 217 213 212 219 223 226 228 228 228 232 236 236 237 238 239 240 242 244 248 251
168 183 188 182 164 167 172 179 192 206 215 214 188 201 208 208 211 208 210 211 212 214 217 216 219 224 226 228 229 228 228 228 228 230 233 235 237 240 243 248 250 251
184 190 176 158 162 168 158 174 191 202 203 203 199 204 209 210 209 207 200 209 213 216 221 220 223 226 224 222 225 225 224 226 222 227 235 242 245 248 245 243 246 247
181 155 101 116 166 178 186 194 199 195 188 195 199 207 210 203 201 198 210 215 216 217 218 220 220 223 216 214 220 222 212 216 220 227 234 240 245 248 249 243 242 245
158 128 134 175 198 194 194 200 202 196 183 192 194 202 203 190 193 202 209 210 212 215 215 218 222 220 211 210 216 225 227 220 219 222 224 232 237 242 248 250 245 235
156 156 171 192 196 193 197 194 190 191 188 192 198 204 200 191 200 208 206 205 209 214 222 225 227 215 205 208 214 217 217 223 223 224 227 231 236 237 241 246 248 247
167 171 180 188 196 202 199 173 182 192 197 193 205 207 190 193 200 201 209 207 214 219 227 229 235 202 202 209 213 215 216 222 234 230 233 238 238 236 241 242 246 247
170 175 183 190 196 197 193 188 190 199 202 200 202 196 199 206 204 210 212 210 215 225 231 235 235 210 203 209 213 216 219 214 238 237 239 243 243 242 240 242 243 248
178 178 182 197 196 190 188 195 198 203 203 204 203 202 203 207 209 211 212 214 222 224 232 238 237 220 211 212 215 220 225 219 238 239 244 247 247 248 246 245 245 246
180 179 194 191 186 190 192 198 200 200 202 202 209 213 209 212 217 221 224 226 228 228 235 244 245 219 210 212 218 223 225 227 231 235 241 243 247 246 246 246 248 250
179 184 187 191 193 194 198 199 199 196 195 188 203 211 213 217 223 220 224 232 233 226 228 242 250 221 200 212 220 227 218 231 230 233 237 241 245 269 274 261 243 237
183 177 177 200 193 198 203 204 199 181 188 184 203 206 212 220 221 226 230 233 233 234 229 234 243 232 203 206 215 218 204 225 235 240 247 248 241 240 236 234 234 179
180 175 192 198 195 199 197 195 191 182 180 175 202 208 220 219 219 232 237 232 230 236 237 240 253 253 216 216 210 205 191 229 235 242 246 240 210 241 228 230 218 175
182 182 194 193 199 202 197 189 168 163 177 189 191 199 220 243 240 243 248 249 239 234 241 235 244 252 221 189 200 191 187 215 226 232 240 244 247 241 234 230 223 218